Location: Buffign�court
(47.8126°N, 6.0176°E)
Time: 02:13:13
(UTC+00:00)

In-Cosmos 22 - Pass Details

Date: 16 June 2021
Orbit: 786 x 876 km, 81.2° (Epoch: 04 August)

Event Time Altitude Azimuth Distance (km) Brightness Sun altitude
Rises 21:00:22 0° 195° (SSW) 3,274 6.9 -10.6°
Reaches altitude 10° 21:02:44 10° 197° (SSW) 2,344 6.2 -10.9°
Maximum altitude 21:08:00 73° 282° (WNW) 825 4.3 -11.4°
Drops below altitude 10° 21:13:19 10° 8° (N) 2,363 7.3 -11.9°
Sets 21:15:43 0° 11° (N) 3,303 8.1 -12.1°
